CZ-4 DEB, 28067

Orbit data source: Space-Track

CZ-4 DEB, 28067 is space debris in SSO originally from a launch on Thu, 14 Oct 1999 UTC launched from the Taiyaun Space Center, China (TSC). Debris objects in space refer to the collection of defunct objects orbiting the Earth. Examples of debris include non-operational satellites, rocket bodies, and fragments generated from explosions, collisions, or faulty payload assembly.

Loading next visibility...
Identifier
28067, 1999-057MX
Orbit
SSO
Country
Flag of CNCN / PRC
Related business
Manufacturer
Unknown
Mission
Spacecraft
Bus & Motor
Unknown
Mass
Unknown
Launch date (UTC)
1999-10-14 (26 years ago)
Launch vehicle
Unknown
Launch site
Taiyaun Space Center, China (TSC)
Object type
Payload
Rocket body
Debris
Shape & HBR
Unknown shape, 0.1 m
Radar Cross Section
Small (<0.1 m²)

Expand to show TLE details & history
Last TLE update: 7 hours ago

TLE from 7 hours ago
0 CZ-4 DEB
1 28067U 99057MX  26038.14850093  .00009712  00000-0  16140-2 0  9995
2 28067  98.4209 112.8383 0066582 139.0057 221.6180 14.68859730224565
Epoch: 2026-02-07T03:33Z
TLE epoch observation values (Epoch: 2026-02-07T03:33:50.480Z)
Latitude
0.00001°
Longitude
-77.89822°
Altitude
702.902 km
Speed
7.486 km/s
True Right ascension
07h 31m 21s
True Declination
0° 00' 00"
Sunlit
Object was in full shadow at epoch
Visualization orbit readout
Latitude
Unknown
Longitude
Unknown
Altitude
Unknown
Speed
Unknown
Apparent Right ascension
Unknown
Apparent Declination
Unknown
Sunlit
N/A
Visualization observer readout
Local Sidereal Time
12:21:07
Azimuth
Unknown
Elevation
Unknown
Doppler factor
Unknown
Orbital elements
Apogee altitude
708.663 km
Perigee altitude
614.917 km
Semi-major axis
7,039.927 km
Eccentricity
0.00666
Inclination
98.4209°
RAAN
112.8383°
Arg. of periapsis
139.0057°
True anomaly
221.1144°
Mean anomaly
221.618°
Eccentric anomaly
221.36589°
Mean motion
3.67444 °/min
Orbital period
97.97 mins
BSTAR
0.001614
Loading maneuver chart data...
Computing Atmospheric mass density...

Documentation

Showing up to 5 results
|